Terminal Aerodrome Forecast
Issued by NWS

Home | Current Version | Previous Version | Text Only | Print | Product List | Glossary Off
Versions: 1 2 3 4 5 6 7 8 9 10 11 12 13 14 15 16 17 18 19 20 21 22 23 24 25 26 27 28 29 30 31 32 33 34 35 36 37 38 39 40 41 42 43 44 45 46 47 48 49 50

000
FTUS43 KLOT 271300 AAA
TAFGYY
TAF AMD
KGYY 271304Z 2713/2812 28009KT P6SM VCSH OVC060
     FM271400 30010KT P6SM VCSH BKN018
      TEMPO 2714/2716 SCT018
     FM271600 30011G16KT P6SM BKN020 BKN045
     FM271900 31014G20KT P6SM BKN025
     FM272200 31011G15KT P6SM SCT025
     FM280100 29008KT P6SM SCT250
     FM280900 20005KT P6SM BKN100=

USA.gov is the U.S. government's official web portal to all federal, state and local government web resources and services.